Weather History for KGGW - December, 2012

Change the Weather History Date:

Thursday, December 20, 2012

  Actual Average Record
Temperature  
Mean Temperature 10 °F 15 °F  
Max Temperature 20 °F 25 °F 53 °F (1954)
Min Temperature -1 °F 5 °F -38 °F (1929)
Degree Days  
Heating Degree Days 55 50  
Month to date heating degree days 874 948  
Since 1 July heating degree days 2881 2941  
Cooling Degree Days 0 0  
Month to date cooling degree days 0 0  
Year to date cooling degree days 681 533  
Moisture  
Dew Point 6 °F    
Average Humidity 81    
Maximum Humidity 95    
Minimum Humidity 67    
Precipitation  
Precipitation 0.00 in 0.02 in 0.21 in (1953)
Month to date precipitation 0.38 0.24  
Year to date precipitation 12.94 11.50  
Snow  
Snow 0.00 in 0.30 in 6.20 in (2010)
Month to date snowfall 6.0 4.6  
Since 1 July snowfall 19.3 11.2  
Snow Depth 4.00 in    
Sea Level Pressure  
Sea Level Pressure 30.09 in    
Wind  
Wind Speed 10 mph (ESE)    
Max Wind Speed 17 mph    
Max Gust Speed 20 mph    
Visibility 10 miles    
Events      
T = Trace of Precipitation, MM = Missing Value Source: NWS Daily Summary

Daily Weather History Graph

Daily Weather History Graph

Search for Another Location

Airport or City:

Trip Planner

Search our weather history database for the weather conditions in past years. The results will help you decide how hot, cold, wet, or windy it might be!

Date:

Astronomy

Dec. 20, 2012 Rise Set
Actual Time 7:54 AM MST 4:14 PM MST
Civil Twilight 7:17 AM MST 4:51 PM MST
Nautical Twilight 6:37 AM MST 5:31 PM MST
Astronomical Twilight 5:59 AM MST 6:09 PM MST
Moon 11:56 AM MST (12/20) 12:18 AM MST (12/20)
Length of Visible Light 9h 33m
Length of Day
8h 20m
First Quarter, 56% of the Moon is Illuminated
Dec 20
First Quarter
Dec 28
Full
Jan 4
Last Quarter
Jan 11
New
Jan 18
First Quarter

Hourly Weather History & Observations

Time (MST) Temp. Windchill Dew Point Humidity Pressure Visibility Wind Dir Wind Speed Gust Speed Precip Events Conditions
12:53 AM 1.9 °F -5.6 °F -0.0 °F 91% 30.13 in 10.0 mi SE 3.5 mph - N/A   Clear
1:53 AM 1.9 °F -12.9 °F -2.0 °F 83% 30.12 in 10.0 mi East 9.2 mph - N/A   Clear
2:53 AM -0.0 °F -14.2 °F -4.0 °F 83% 30.13 in 10.0 mi East 8.1 mph - N/A   Clear
3:53 AM 1.0 °F -14.9 °F -2.9 °F 83% 30.13 in 10.0 mi ESE 10.4 mph - N/A   Clear
4:53 AM 5.0 °F -11.6 °F 1.0 °F 84% 30.11 in 10.0 mi ESE 12.7 mph - N/A   Clear
5:53 AM 7.0 °F -4.5 °F 3.0 °F 84% 30.12 in 10.0 mi East 6.9 mph - N/A   Clear
6:53 AM 10.9 °F -2.6 °F 6.1 °F 81% 30.12 in 10.0 mi East 10.4 mph - N/A   Clear
7:53 AM 5.0 °F -4.1 °F 1.9 °F 87% 30.14 in 10.0 mi ESE 4.6 mph - N/A   Clear
8:53 AM 5.0 °F -6.9 °F -0.0 °F 80% 30.14 in 8.0 mi East 6.9 mph - N/A   Clear
9:53 AM 10.9 °F 2.9 °F 6.1 °F 81% 30.14 in 10.0 mi SE 4.6 mph - N/A   Clear
10:53 AM 12.9 °F 0.7 °F 6.1 °F 74% 30.14 in 10.0 mi East 9.2 mph - N/A   Clear
11:53 AM 17.1 °F 5.8 °F 9.0 °F 71% 30.12 in 10.0 mi East 9.2 mph - N/A   Clear
12:53 PM 17.1 °F 5.8 °F 10.0 °F 74% 30.11 in 10.0 mi ESE 9.2 mph - N/A   Clear
1:53 PM 19.0 °F 7.5 °F 10.0 °F 68% 30.09 in 10.0 mi East 10.4 mph - N/A   Clear
2:53 PM 19.9 °F 8.6 °F 10.9 °F 68% 30.08 in 10.0 mi ESE 10.4 mph - N/A   Clear
3:53 PM 16.0 °F 2.3 °F 9.0 °F 74% 30.07 in 10.0 mi East 12.7 mph - N/A   Clear
4:53 PM 14.0 °F -0.8 °F 7.0 °F 74% 30.06 in 10.0 mi East 13.8 mph - N/A   Clear
5:53 PM 14.0 °F -1.4 °F 7.0 °F 74% 30.04 in 10.0 mi East 15.0 mph - N/A   Clear
6:53 PM 15.1 °F -0.1 °F 9.0 °F 77% 30.03 in 10.0 mi ESE 15.0 mph - N/A   Clear
7:53 PM 17.1 °F 2.0 °F 10.0 °F 74% 30.04 in 10.0 mi East 16.1 mph - N/A   Clear
8:53 PM 15.1 °F 0.5 °F 10.0 °F 80% 30.04 in 10.0 mi ESE 13.8 mph - N/A   Clear
9:53 PM 16.0 °F 1.7 °F 10.0 °F 77% 30.02 in 10.0 mi East 13.8 mph - N/A   Clear
10:53 PM 15.1 °F 3.3 °F 9.0 °F 77% 30.03 in 10.0 mi ESE 9.2 mph - N/A   Clear
11:53 PM 15.1 °F 1.1 °F 9.0 °F 77% 30.03 in 10.0 mi ESE 12.7 mph - N/A   Clear